Terminal Aerodrome Forecast
Issued by NWS

Home | Current Version | Previous Version | Text Only | Print | Product List | Glossary On
Versions: 1 2 3 4 5 6 7 8 9 10 11 12 13 14 15 16 17
790
FTUS43 KAPX 221029 AAA
TAFTVC
TAF AMD
KTVC 221029Z 2210/2306 VRB03KT P6SM BKN150
      TEMPO 2210/2213 4SM BR
     FM221300 21006KT P6SM SCT120
     FM230100 21004KT P6SM SCT015 BKN025=

USA.gov is the U.S. government's official web portal to all federal, state and local government web resources and services.